Wind_Speed
8 7 6 5 4 3 2 2 2 3 4 5 6 7 8 10 11 12 13 14 15 16 17 18 19 20 21 22 23 23 24 24 25 25 25 26 25 25 24 24 23 22 21 20
7 6 5 4 3 2 2 1 1 1 3 4 5 6 7 9 10 11 13 14 15 16 17 17 18 20 21 22 23 23 24 25 25 25 25 26 26 26 25 25 25 24 23 21
6 6 5 4 3 2 1 1 1 2 3 4 5 6 7 8 10 11 12 14 15 15 16 17 18 19 20 21 22 23 24 24 25 25 26 26 27 27 27 26 26 26 24 23
7 6 6 5 4 3 3 3 3 4 4 5 6 7 9 10 11 12 13 14 15 16 17 18 18 19 20 21 22 23 23 24 25 25 26 26 27 28 28 28 27 27 25 24
8 7 6 6 6 6 6 6 6 6 7 8 8 9 10 11 12 13 14 15 16 17 17 18 19 20 20 21 22 22 23 24 25 25 25 26 27 28 29 29 28 28 27 25
9 9 9 8 8 8 8 8 8 9 9 10 11 12 12 13 14 15 16 16 17 17 18 19 20 20 21 21 22 22 23 24 24 25 25 26 27 27 28 29 29 28 27 26
11 10 10 10 10 10 10 11 11 11 12 12 13 14 14 15 16 16 17 17 18 19 19 20 20 21 21 22 22 22 23 23 24 25 25 26 26 27 27 28 28 28 27 27
12 12 11 12 12 12 13 13 14 14 14 15 15 16 16 17 17 18 18 19 20 20 20 21 21 21 22 22 22 23 23 24 24 25 25 25 26 26 26 26 27 27 27 27
15 15 14 14 14 15 15 15 16 16 16 17 17 17 18 18 18 19 19 20 20 21 21 21 22 22 22 23 23 23 24 24 24 25 25 25 25 25 26 26 25 26 26 26
16 16 16 17 17 17 17 17 18 18 18 18 18 19 19 19 20 20 21 21 21 22 22 23 23 24 24 24 24 24 25 25 25 25 25 25 25 25 25 25 25 24 24 24
19 19 19 19 19 19 19 19 19 19 20 20 20 20 21 21 22 22 22 23 23 24 24 25 25 25 25 25 25 25 26 26 25 25 25 25 24 24 24 24 24 24 23 23
23 22 22 22 22 22 22 21 21 21 21 22 22 23 23 23 24 24 25 26 26 27 28 28 28 28 27 27 26 26 27 27 26 26 25 25 24 24 24 24 23 23 22 22
25 25 25 24 24 24 24 24 24 23 24 24 25 25 26 26 27 28 29 29 30 30 31 31 31 31 30 29 29 28 28 28 28 27 27 26 25 25 24 24 23 22 22 21
28 28 27 27 26 26 26 26 26 27 27 27 28 28 29 30 31 32 32 33 33 33 34 34 34 34 33 33 32 31 30 30 30 29 29 28 27 26 25 24 24 23 22 21
31 31 30 30 29 29 29 30 30 30 31 31 32 32 33 34 35 35 35 36 36 36 36 37 37 36 36 35 34 33 32 32 31 31 30 30 29 28 27 26 25 24 23 22
35 34 34 33 33 33 34 34 34 34 35 35 35 36 36 37 37 37 38 38 39 38 38 38 37 37 36 35 34 34 33 33 33 32 32 32 31 31 30 29 28 27 26 24
38 37 37 37 38 38 38 38 39 39 39 39 40 40 40 40 40 40 40 39 39 38 37 36 36 35 35 35 34 34 34 34 34 34 33 33 33 33 33 32 31 30 29 28
41 41 41 41 41 42 42 42 42 43 43 43 43 42 42 42 41 41 40 39 38 37 36 35 35 35 35 35 35 35 35 35 35 35 35 35 36 36 36 35 35 34 33 32
44 44 44 44 44 45 45 45 45 45 45 45 44 44 43 43 42 40 39 38 37 36 36 35 35 35 35 35 36 36 36 36 37 37 37 37 38 38 38 38 38 38 37 36
47 47 47 47 47 48 48 48 48 47 47 46 45 45 44 43 41 40 38 37 36 35 35 36 36 37 38 38 39 39 39 39 40 40 40 40 40 40 41 41 42 42 42 41
49 49 49 50 50 49 49 49 49 49 48 47 46 45 44 42 40 38 37 37 36 37 37 38 38 39 40 41 41 42 42 42 42 42 42 42 42 43 43 44 45 45 46 46
51 51 51 51 51 50 50 50 49 48 47 47 45 43 41 39 38 38 37 38 38 39 40 40 41 42 42 43 43 44 44 44 44 45 45 45 46 46 47 47 48 49 49 50
50 51 51 51 51 51 50 49 47 47 46 44 42 40 39 38 38 38 38 39 40 41 42 43 44 44 45 45 46 47 47 48 48 49 49 49 50 50 50 51 52 52 53 54
47 48 48 48 48 47 47 45 45 44 42 41 40 39 38 38 38 39 40 41 42 43 44 45 46 47 47 48 49 50 50 51 52 53 53 53 54 54 54 54 55 56 57 58
43 43 44 44 44 43 43 42 41 40 39 38 38 38 38 39 39 40 42 43 44 45 46 47 48 49 50 51 52 53 54 55 55 56 57 57 58 58 58 58 58 59 59 60
41 41 41 41 41 41 41 40 39 38 38 38 38 39 39 40 41 42 44 45 46 47 48 49 50 51 52 53 54 55 57 58 58 59 60 60 60 61 61 61 60 60 60 61
40 40 40 40 40 40 39 39 39 39 39 39 39 40 41 42 43 44 46 46 47 48 49 50 52 53 54 55 56 58 59 60 60 61 62 62 62 62 62 61 61 60 60 60
Wind_Direction
163 162 160 156 151 142 129 102 76 51 38 32 28 25 23 21 19 18 18 18 17 15 15 14 14 13 13 13 13 13 12 12 12 12 12 11 10 8 6 3 0 356 352 345
168 169 169 167 162 156 151 140 65 15 11 9 9 8 8 7 7 8 9 8 8 7 7 7 7 8 8 9 9 10 10 10 10 9 9 9 9 8 6 4 2 359 355 352
180 182 185 191 199 200 209 240 291 322 333 338 344 347 349 351 352 353 354 356 357 358 358 359 360 0 1 2 3 5 6 6 7 7 7 7 7 6 5 4 2 0 358 356
197 204 215 225 231 240 252 268 284 299 311 319 324 328 331 335 337 339 342 344 346 348 349 349 351 352 353 354 356 357 359 1 2 3 4 4 4 5 5 4 3 2 360 359
214 222 230 236 245 254 262 271 282 291 298 304 312 316 320 324 327 329 332 334 336 338 340 341 343 344 346 347 349 351 353 355 357 358 358 359 1 2 3 4 4 3 3 2
228 235 241 248 254 260 267 273 279 287 293 299 304 309 314 317 320 322 325 328 330 332 334 335 336 338 339 341 343 345 346 349 351 353 354 355 356 358 0 2 4 6 6 6
239 244 249 253 257 262 267 273 279 286 291 296 301 305 309 312 315 317 320 323 325 327 329 330 332 333 335 336 338 339 340 342 344 347 349 351 353 355 357 360 2 5 6 7
246 250 253 256 261 264 269 274 279 284 289 293 297 301 304 307 310 313 315 317 319 321 323 325 326 328 330 332 334 336 337 338 339 341 343 346 349 351 353 356 358 1 4 5
251 255 259 260 263 267 271 275 280 284 288 292 295 299 302 305 308 310 312 314 316 318 319 321 322 323 326 328 329 331 333 334 335 336 338 340 343 346 349 351 353 357 359 2
255 258 261 263 266 270 274 277 281 284 287 291 294 298 301 303 305 308 310 311 313 315 316 317 318 319 321 323 324 325 326 328 330 332 334 335 337 340 343 345 348 351 354 357
258 261 263 265 268 271 274 276 279 282 286 289 292 295 297 300 302 304 307 309 310 311 312 313 314 314 316 318 318 318 319 320 322 325 327 329 331 333 336 339 342 344 347 351
260 262 264 265 268 270 273 275 277 280 283 286 289 292 295 297 300 302 303 305 306 307 308 308 308 309 311 312 313 313 313 314 315 316 318 321 323 325 328 331 334 337 339 343
261 262 264 265 267 269 271 274 277 279 282 285 287 290 293 296 298 299 301 302 302 303 303 303 303 304 305 306 306 306 306 307 308 309 310 312 314 316 319 321 324 328 331 334
260 262 263 264 266 268 270 273 276 279 281 284 287 289 292 294 296 297 298 298 299 299 300 300 299 299 300 301 301 301 301 301 302 303 304 304 305 307 309 311 314 317 320 324
259 260 262 263 265 268 270 272 275 278 281 283 286 288 290 292 294 295 296 296 296 296 297 297 296 297 297 297 298 298 298 298 298 298 298 298 299 300 300 302 304 306 308 311
257 260 262 264 266 268 270 272 275 277 280 282 284 286 289 290 292 294 295 295 295 295 294 295 295 296 296 297 297 297 296 296 295 295 294 294 294 294 294 294 295 296 298 299
257 259 261 263 265 267 270 272 275 277 279 281 283 286 288 290 291 293 293 294 294 293 293 293 294 294 295 295 296 296 296 295 294 293 292 291 290 290 289 289 288 288 289 290
255 257 260 262 265 267 269 272 274 276 278 281 283 286 288 289 291 292 292 293 293 293 293 293 293 294 295 296 296 297 296 295 295 293 292 290 288 287 286 285 284 283 282 282
255 256 258 261 263 265 268 270 273 275 277 280 283 285 287 288 289 290 290 291 292 293 293 294 295 296 296 297 298 298 298 297 296 294 293 291 289 286 284 282 281 279 278 276
254 256 257 259 262 264 267 269 272 274 277 279 282 284 285 286 287 287 287 288 289 290 292 293 294 296 297 297 298 298 298 297 296 295 294 292 290 287 285 282 279 277 275 273
252 254 256 258 261 264 266 268 271 273 276 278 281 282 283 284 284 284 285 286 287 289 290 292 293 294 295 296 297 297 297 297 296 295 294 293 291 288 286 283 280 277 274 271
250 252 255 257 260 262 265 267 270 272 275 277 279 279 280 280 281 282 284 285 287 289 291 292 294 295 295 296 297 297 297 297 296 296 295 293 291 289 286 284 281 277 274 271
249 251 253 256 258 261 264 266 268 270 273 274 275 275 276 278 280 281 283 285 287 289 291 293 294 296 296 297 297 297 297 297 297 296 295 294 292 290 288 285 282 278 274 271
248 250 252 255 257 259 261 263 266 268 269 270 272 273 275 277 279 282 284 287 289 291 293 294 295 296 297 298 298 298 298 298 298 297 296 295 293 291 289 286 283 279 275 271
247 249 251 252 254 256 259 261 263 264 266 268 270 272 274 277 280 282 285 288 290 292 293 295 296 297 298 299 299 300 300 299 299 298 297 296 295 293 291 288 285 281 277 272
246 247 249 251 253 255 257 258 260 262 264 267 269 272 275 278 281 284 286 289 291 293 294 296 297 298 299 300 301 301 301 301 300 300 299 298 297 295 293 290 287 284 280 275
246 247 248 250 251 253 255 257 260 262 265 267 270 273 276 279 282 285 288 290 292 294 296 297 299 300 301 301 302 303 303 302 302 302 301 300 299 298 296 293 291 287 283 278
Height
5867 5868 5869 5870 5870 5871 5871 5871 5871 5870 5869 5868 5867 5865 5863 5861 5859 5856 5854 5851 5848 5844 5841 5837 5833 5829 5825 5820 5816 5811 5806 5800 5795 5790 5784 5779 5773 5768 5762 5757 5751 5746 5741 5736
5867 5867 5868 5869 5870 5870 5870 5870 5870 5869 5869 5867 5866 5864 5863 5861 5859 5856 5854 5851 5848 5844 5841 5837 5834 5830 5826 5821 5817 5812 5807 5801 5796 5791 5785 5780 5774 5768 5762 5756 5750 5744 5739 5733
5866 5867 5867 5869 5869 5869 5869 5869 5869 5868 5868 5866 5865 5864 5862 5860 5858 5856 5853 5850 5847 5844 5841 5837 5833 5830 5825 5821 5817 5812 5807 5802 5797 5791 5786 5780 5774 5768 5762 5756 5750 5744 5737 5732
5865 5866 5867 5869 5867 5868 5868 5868 5867 5867 5866 5865 5864 5862 5861 5859 5857 5854 5852 5849 5846 5843 5840 5836 5833 5829 5825 5821 5816 5812 5807 5802 5797 5791 5786 5781 5775 5769 5762 5756 5749 5743 5736 5730
5863 5864 5865 5866 5865 5865 5866 5866 5865 5865 5864 5863 5862 5860 5859 5857 5855 5852 5850 5847 5844 5841 5838 5835 5831 5827 5824 5820 5815 5811 5806 5801 5796 5791 5786 5780 5775 5769 5763 5756 5749 5743 5736 5730
5861 5862 5863 5864 5863 5863 5864 5863 5863 5862 5861 5860 5859 5858 5857 5854 5852 5850 5848 5845 5842 5839 5836 5833 5829 5826 5822 5818 5814 5810 5805 5800 5796 5790 5785 5780 5774 5769 5763 5756 5750 5743 5737 5731
5858 5858 5859 5860 5859 5860 5861 5861 5859 5858 5858 5857 5856 5855 5853 5851 5849 5847 5845 5842 5839 5836 5833 5830 5827 5823 5819 5816 5812 5808 5803 5799 5794 5789 5784 5779 5774 5768 5763 5757 5751 5745 5739 5733
5854 5855 5858 5856 5855 5856 5856 5856 5855 5854 5854 5853 5852 5850 5849 5847 5845 5843 5841 5838 5836 5833 5830 5827 5823 5820 5817 5813 5809 5805 5801 5797 5792 5788 5783 5778 5773 5768 5762 5757 5751 5746 5740 5734
5851 5853 5852 5851 5851 5851 5851 5851 5850 5850 5849 5848 5847 5846 5844 5843 5841 5839 5836 5834 5831 5828 5826 5823 5820 5816 5813 5810 5806 5802 5798 5794 5790 5786 5781 5777 5772 5767 5762 5757 5752 5746 5741 5735
5845 5845 5846 5846 5846 5846 5846 5845 5845 5844 5844 5843 5842 5840 5839 5837 5835 5834 5831 5829 5827 5824 5821 5818 5815 5812 5809 5806 5802 5798 5795 5791 5787 5783 5778 5774 5770 5765 5761 5756 5751 5746 5741 5736
5839 5840 5840 5840 5840 5840 5840 5839 5839 5839 5838 5837 5836 5835 5833 5832 5830 5828 5826 5823 5821 5818 5815 5813 5809 5806 5804 5801 5797 5794 5790 5786 5783 5779 5775 5771 5767 5763 5759 5754 5750 5745 5741 5736
5833 5833 5834 5834 5834 5833 5833 5833 5833 5832 5831 5830 5829 5828 5827 5825 5823 5821 5819 5817 5815 5812 5809 5806 5803 5800 5797 5795 5791 5788 5784 5781 5777 5774 5771 5767 5763 5760 5756 5752 5748 5744 5740 5736
5825 5825 5826 5826 5826 5826 5826 5826 5826 5825 5824 5824 5822 5821 5820 5818 5816 5814 5812 5810 5807 5804 5801 5798 5795 5792 5790 5787 5784 5781 5778 5774 5771 5768 5765 5762 5759 5755 5752 5749 5745 5741 5738 5734
5816 5817 5817 5818 5818 5818 5818 5818 5818 5817 5816 5815 5814 5813 5812 5810 5808 5806 5804 5801 5798 5796 5793 5790 5787 5784 5781 5779 5776 5773 5770 5767 5764 5761 5758 5755 5753 5750 5747 5744 5741 5738 5735 5732
5807 5808 5809 5809 5810 5810 5809 5809 5809 5808 5808 5807 5806 5804 5803 5801 5799 5797 5794 5792 5789 5786 5783 5780 5777 5774 5771 5769 5766 5764 5761 5758 5756 5753 5751 5748 5745 5743 5741 5738 5736 5733 5731 5728
5797 5798 5799 5799 5800 5800 5800 5800 5799 5799 5798 5797 5796 5795 5793 5791 5789 5787 5784 5781 5778 5775 5772 5769 5766 5763 5761 5758 5756 5754 5751 5749 5746 5744 5742 5739 5737 5735 5733 5731 5729 5727 5725 5723
5786 5787 5788 5788 5789 5789 5789 5789 5788 5788 5787 5786 5785 5784 5782 5780 5778 5776 5773 5770 5767 5764 5761 5758 5756 5753 5750 5748 5746 5744 5741 5739 5736 5734 5732 5730 5728 5726 5724 5722 5720 5719 5717 5716
5774 5775 5776 5777 5777 5777 5777 5777 5776 5776 5775 5774 5773 5772 5770 5768 5766 5763 5761 5758 5755 5753 5750 5748 5745 5743 5740 5738 5735 5733 5731 5728 5726 5723 5721 5719 5717 5715 5714 5712 5710 5709 5708 5707
5761 5762 5763 5764 5764 5764 5764 5764 5764 5763 5762 5762 5761 5759 5758 5756 5754 5751 5749 5747 5744 5741 5739 5736 5734 5732 5729 5727 5724 5722 5719 5717 5714 5712 5710 5707 5705 5703 5702 5700 5699 5698 5697 5696
5746 5748 5749 5749 5750 5750 5750 5750 5750 5750 5749 5749 5748 5747 5745 5743 5741 5740 5738 5736 5733 5731 5728 5726 5724 5721 5718 5715 5713 5710 5707 5704 5702 5699 5697 5694 5692 5690 5688 5687 5685 5684 5683 5683
5730 5732 5733 5734 5735 5736 5736 5736 5736 5736 5736 5735 5735 5734 5732 5731 5729 5727 5726 5724 5722 5720 5718 5715 5713 5710 5707 5704 5701 5697 5694 5691 5688 5685 5683 5680 5678 5675 5673 5672 5670 5669 5668 5668
5714 5716 5718 5719 5720 5721 5722 5722 5722 5722 5722 5722 5721 5720 5719 5718 5717 5715 5714 5712 5710 5708 5706 5703 5700 5697 5694 5691 5688 5684 5681 5677 5674 5671 5668 5665 5662 5660 5657 5655 5653 5652 5651 5650
5698 5700 5702 5704 5705 5706 5707 5708 5708 5708 5708 5708 5708 5707 5707 5706 5705 5703 5702 5700 5698 5695 5693 5690 5687 5684 5681 5677 5674 5670 5666 5662 5659 5655 5651 5648 5645 5642 5639 5636 5634 5632 5631 5630
5683 5685 5687 5689 5691 5692 5693 5694 5695 5695 5695 5695 5695 5695 5694 5693 5692 5691 5689 5687 5685 5682 5679 5676 5673 5670 5666 5662 5658 5654 5650 5645 5641 5637 5633 5629 5625 5622 5618 5615 5613 5610 5608 5607
5668 5671 5673 5675 5677 5678 5680 5681 5681 5682 5683 5683 5683 5682 5682 5681 5680 5678 5676 5674 5672 5669 5666 5662 5659 5655 5650 5646 5641 5637 5632 5627 5623 5618 5613 5609 5604 5600 5596 5592 5589 5586 5584 5582
5655 5658 5660 5662 5664 5666 5667 5668 5669 5670 5670 5671 5670 5670 5669 5668 5667 5665 5663 5661 5658 5654 5651 5647 5643 5639 5634 5629 5624 5619 5613 5608 5603 5598 5592 5587 5582 5577 5572 5568 5564 5560 5557 5555
5643 5645 5647 5649 5651 5653 5654 5656 5657 5658 5658 5658 5658 5657 5657 5656 5654 5652 5649 5646 5643 5640 5636 5631 5627 5622 5617 5612 5606 5601 5595 5589 5583 5577 5571 5565 5559 5553 5547 5542 5537 5533 5530 5527